Location: NJAA Observatory
(40.6819°N, 74.8979°W)
Time: 15:50:29
(UTC-04:00)

Transit 2A Rocket - Visible Passes

Search period start: 28 April 2016 00:00
Search period end: 08 May 2016 00:00
Orbit: 586 x 918 km, 66.7° (Epoch: 27 April)

Date Brightness Start Highest point End Pass type
(mag) Time Alt. Az. Time Alt. Az. Time Alt. Az.
28 Apr 5.2 03:14:27 54° ESE 03:14:31 54° ESE 03:19:37 10° NE visible
28 Apr 6.5 04:54:22 13° W 04:57:33 22° NW 05:01:42 10° N visible
29 Apr 6.4 02:33:17 28° E 02:33:17 28° E 02:36:55 10° NE visible
29 Apr 5.9 04:13:12 27° W 04:14:56 34° NW 04:19:48 10° NNE visible
30 Apr 7.3 01:52:05 15° E 01:52:05 15° E 01:53:39 10° ENE visible
30 Apr 5.0 03:31:59 55° W 03:32:27 58° WNW 03:37:43 10° NNE visible
30 Apr 7.2 05:14:44 10° NW 05:16:24 11° NW 05:18:06 10° NNW visible
01 May 5.1 02:50:44 68° NE 02:50:44 68° NE 02:55:27 10° NNE visible
01 May 6.9 04:30:39 11° WNW 04:33:33 17° NW 04:37:01 10° N visible
02 May 6.2 02:09:27 35° ENE 02:09:27 35° ENE 02:12:57 10° NE visible
02 May 6.3 03:49:22 22° WNW 03:50:49 26° NW 03:55:18 10° N visible
03 May 7.0 01:28:08 19° ENE 01:28:08 19° ENE 01:30:08 10° NE visible
03 May 5.6 03:08:02 40° WNW 03:08:15 40° NW 03:13:19 10° NNE visible
04 May 5.4 02:26:41 57° N 02:26:41 57° N 02:31:11 10° NNE visible
04 May 7.2 04:07:12 10° WNW 04:09:36 13° NW 04:12:06 10° N visible
05 May 6.0 01:45:17 40° NE 01:45:17 40° NE 01:48:50 10° NE visible
05 May 6.8 03:25:11 17° WNW 03:26:47 19° NW 03:30:40 10° N visible
06 May 6.8 01:03:51 24° ENE 01:03:51 24° ENE 01:06:15 10° NE visible
06 May 6.2 02:43:45 29° NW 02:44:06 30° NW 02:48:51 10° NNE visible
07 May 7.3 00:22:23 13° ENE 00:22:23 13° ENE 00:23:17 10° ENE visible
07 May 5.8 02:02:17 45° NNW 02:02:17 45° NNW 02:06:49 10° NNE visible
07 May 7.6 03:45:22 10° NW 03:45:43 10° NNW 03:46:05 10° NNW visible
